Pineville, WV

6:59 AM EDT on May 25, 2017 (GMT -0400)
Pineville

Weather History for KI16 - November, 2012

Change the Weather History Date:

Saturday, November 10, 2012

  Actual Average (KBKW) Record (KBKW)
Temperature  
Mean Temperature 52 °F -  
Max Temperature 73 °F 53 °F 77 °F (1924)
Min Temperature 32 °F 36 °F 13 °F (1973)
Degree Days  
Heating Degree Days 12    
Growing Degree Days 2 (Base 50)    
Moisture  
Dew Point 37 °F    
Average Humidity 74    
Maximum Humidity 100    
Minimum Humidity 24    
Precipitation  
Precipitation 0.00 in - - ()
Sea Level Pressure  
Sea Level Pressure 30.34 in    
Wind  
Wind Speed - (North)    
Max Wind Speed -    
Max Gust Speed -    
Visibility 10 miles    
Events      
Averages and records for this station are not official NWS values.
T = Trace of Precipitation, MM = Missing Value Source: NWS Daily Summary

Daily Weather History Graph

Daily Weather History Graph

Search for Another Location

Airport or City:

Trip Planner

Search our weather history database for the weather conditions in past years. The results will help you decide how hot, cold, wet, or windy it might be!

Date:

Astronomy

Nov. 10, 2012 Rise Set
Actual Time 7:01 AM EST 5:18 PM EST
Civil Twilight 6:33 AM EST 5:46 PM EST
Nautical Twilight 6:02 AM EST 6:17 PM EST
Astronomical Twilight 5:31 AM EST 6:48 PM EST
Moon 3:08 AM EST (11/10) 3:01 PM EST (11/10)
Length of Visible Light 11h 12m
Length of Day
10h 17m
Waning Crescent, 14% of the Moon is Illuminated
Nov 10
Waning Crescent
Nov 13
New
Nov 20
First Quarter
Nov 28
Full
Dec 6
Last Quarter

Hourly Weather History & Observations

Time (EST) Temp. Dew Point Humidity Pressure Visibility Wind Dir Wind Speed Gust Speed Precip Events Conditions
12:15 AM 34.0 °F 32.9 °F 96% 30.29 in 10.0 mi North - - N/A   Clear
12:35 AM 33.8 °F 33.1 °F 97% 30.29 in 10.0 mi North - - N/A   Clear
12:55 AM 33.4 °F 32.9 °F 98% 30.30 in 10.0 mi North - - N/A   Clear
1:15 AM 33.1 °F 32.7 °F 99% 30.30 in 10.0 mi North - - N/A   Clear
1:35 AM 32.9 °F 32.5 °F 99% 30.30 in 10.0 mi North - - N/A   Clear
1:55 AM 32.9 °F 32.2 °F 97% 30.30 in 10.0 mi North - - N/A   Clear
2:15 AM 32.5 °F 32.2 °F 99% 30.31 in 10.0 mi North - - N/A   Clear
2:35 AM 32.4 °F 32.2 °F 99% 30.31 in 10.0 mi North - - N/A   Clear
2:55 AM 32.4 °F 32.0 °F 99% 30.32 in 10.0 mi North - - N/A   Clear
3:15 AM 32.4 °F 32.2 °F 99% 30.32 in 10.0 mi North - - N/A   Clear
3:35 AM 32.0 °F 32.0 °F 100% 30.32 in 10.0 mi North - - N/A   Clear
3:55 AM 32.0 °F 32.0 °F 100% 30.32 in 10.0 mi North - - N/A   Clear
4:15 AM 32.0 °F 32.0 °F 100% 30.32 in 10.0 mi North - - N/A   Clear
4:35 AM 32.0 °F 32.0 °F 100% 30.33 in 10.0 mi North - - N/A   Clear
5:15 AM 32.0 °F 32.0 °F 100% 30.34 in 10.0 mi North - - N/A   Clear
5:35 AM 32.0 °F 32.0 °F 100% 30.35 in 10.0 mi North - - N/A   Clear
5:55 AM 32.0 °F 32.0 °F 100% 30.35 in 10.0 mi North - - N/A   Clear
6:15 AM 32.0 °F 32.0 °F 100% 30.36 in 10.0 mi North - - N/A   Clear
6:35 AM 32.0 °F 32.0 °F 100% 30.37 in 10.0 mi North - - N/A   Clear
6:55 AM 32.0 °F 32.0 °F 100% 30.38 in 10.0 mi North - - N/A   Clear
7:15 AM 32.0 °F 32.0 °F 100% 30.39 in 10.0 mi North - - N/A   Clear
7:35 AM 32.7 °F 32.7 °F 100% 30.39 in 10.0 mi North - - N/A   Clear
7:55 AM 34.0 °F 34.0 °F 100% 30.40 in 10.0 mi North - - N/A   Clear
8:15 AM 36.3 °F 35.8 °F 98% 30.40 in 10.0 mi North - - N/A   Clear
8:35 AM 38.3 °F 36.5 °F 93% 30.40 in 10.0 mi North - - N/A   Clear
8:55 AM 40.1 °F 36.9 °F 88% 30.40 in 10.0 mi North - - N/A   Clear
9:15 AM 42.8 °F 38.1 °F 84% 30.40 in 10.0 mi North - - N/A   Clear
9:35 AM 45.0 °F 38.7 °F 79% 30.40 in 10.0 mi North - - N/A   Clear
10:15 AM 56.3 °F 39.2 °F 53% 30.39 in 10.0 mi North - - N/A   Clear
10:35 AM 59.5 °F 34.2 °F 39% 30.39 in 10.0 mi North - - N/A   Clear
10:55 AM 62.2 °F 34.0 °F 35% 30.38 in 10.0 mi North - - N/A   Clear
11:15 AM 63.5 °F 33.6 °F 33% 30.38 in 10.0 mi North - - N/A   Clear
11:35 AM 65.1 °F 34.3 °F 32% 30.37 in 10.0 mi North - - N/A   Clear
11:55 AM 68.0 °F 34.2 °F 29% 30.36 in 10.0 mi North - - N/A   Clear
12:15 PM 68.4 °F 32.5 °F 27% 30.35 in 10.0 mi North - - N/A   Clear
12:35 PM 68.9 °F 31.3 °F 25% 30.34 in 10.0 mi North - - N/A   Clear
12:55 PM 70.2 °F 32.4 °F 25% 30.33 in 10.0 mi North - - N/A   Clear
1:15 PM 71.1 °F 32.7 °F 24% 30.32 in 10.0 mi North - - N/A   Clear
1:35 PM 72.0 °F 33.1 °F 24% 30.32 in 10.0 mi North - - N/A   Clear
1:55 PM 73.2 °F 34.0 °F 24% 30.32 in 10.0 mi North - - N/A   Clear
2:15 PM 73.0 °F 34.0 °F 24% 30.31 in 10.0 mi North - - N/A   Clear
2:35 PM 73.2 °F 36.3 °F 26% 30.31 in 10.0 mi North - - N/A   Clear
2:55 PM 72.0 °F 39.0 °F 30% 30.30 in 10.0 mi North - - N/A   Clear
3:15 PM 72.5 °F 39.0 °F 30% 30.31 in 10.0 mi North - - N/A   Clear
3:35 PM 66.9 °F 40.8 °F 39% 30.31 in 10.0 mi North - - N/A   Clear
3:55 PM 64.0 °F 42.4 °F 45% 30.30 in 10.0 mi North - - N/A   Clear
4:15 PM 60.8 °F 43.2 °F 52% 30.30 in 10.0 mi North - - N/A   Clear
4:35 PM 59.4 °F 43.9 °F 57% 30.30 in 10.0 mi North - - N/A   Clear
4:55 PM 57.7 °F 43.9 °F 60% 30.30 in 10.0 mi North - - N/A   Clear
5:15 PM 55.9 °F 44.1 °F 64% 30.30 in 10.0 mi North - - N/A   Clear
5:35 PM 53.8 °F 43.9 °F 69% 30.31 in 10.0 mi North - - N/A   Clear
5:55 PM 51.8 °F 43.3 °F 73% 30.31 in 10.0 mi North - - N/A   Clear
6:15 PM 50.4 °F 43.0 °F 76% 30.32 in 10.0 mi North - - N/A   Clear
6:55 PM 48.4 °F 42.4 °F 80% 30.33 in 10.0 mi North - - N/A   Clear
7:15 PM 47.7 °F 42.1 °F 81% 30.33 in 10.0 mi North - - N/A   Clear
7:35 PM 46.6 °F 41.5 °F 83% 30.33 in 10.0 mi North - - N/A   Clear
7:55 PM 46.6 °F 41.7 °F 83% 30.34 in 10.0 mi North - - N/A   Clear
8:15 PM 46.0 °F 41.4 °F 84% 30.34 in 10.0 mi North - - N/A   Clear
8:35 PM 45.5 °F 41.4 °F 85% 30.35 in 10.0 mi North - - N/A   Clear
8:55 PM 45.5 °F 41.4 °F 85% 30.35 in 10.0 mi North - - N/A   Clear
9:15 PM 44.2 °F 40.8 °F 88% 30.35 in 10.0 mi North - - N/A   Clear
9:35 PM 44.1 °F 41.0 °F 89% 30.36 in 10.0 mi North - - N/A   Clear
9:55 PM 43.7 °F 40.8 °F 90% 30.36 in 10.0 mi North - - N/A   Clear
10:15 PM 43.2 °F 40.5 °F 90% 30.36 in 10.0 mi North - - N/A   Clear
10:35 PM 43.0 °F 40.6 °F 91% 30.36 in 10.0 mi North - - N/A   Clear
10:55 PM 42.3 °F 39.7 °F 91% 30.35 in 10.0 mi North - - N/A   Clear
11:15 PM 42.4 °F 40.3 °F 92% 30.35 in 10.0 mi North - - N/A   Clear
11:35 PM 41.5 °F 39.7 °F 93% 30.35 in 10.0 mi North - - N/A   Clear
11:55 PM 41.7 °F 40.1 °F 94% 30.35 in 10.0 mi North - - N/A   Clear